User: anonymous   Login
Location: Unspecified
(54.1780°N, 0.0000°E)
Time: 22:17:32
(UTC+00:00)
Language:

Explorer 7 - Orbit

View from above orbital plane
View from above orbital plane
View from above satellite
View from above satellite

Ground track
Ground track

The orbit data is extracted from the following two-line orbital elements,

1 00022U 59009A   21169.44616977  .00000093  00000-0  29750-4 0  9999
2 00022  50.2827 184.2842 0138559 217.5760 141.5443 14.95599853525134
Epoch (UTC): 18 June 2021 10:42:29
Eccentricity: 0.0138559
inclination: 50.2827°
perigee height: 484 km
apogee height: 677 km
right ascension of ascending node: 184.2842°
argument of perigee: 217.5760°
revolutions per day: 14.95599853
mean anomaly at epoch: 141.5443°
orbit number at epoch: 52513

The dashed part of the orbit path shows where the satellite is in the earth's shadow,  

DLR